| time (UTC) | temp F | wind direction | speed knots | gust knots | rain 1hr in | rain 24hr in | rain mn in | humidity % | barometer mb |
| 20260505183053 | 81 | 193 | 5.2 | 7.8 | 0.00 | 0.00 | 0.00 | 42 | 1014.8 |
| 20260505181546 | 80 | 202 | 3.5 | 8.7 | 0.00 | 0.00 | 0.00 | 47 | 1015.3 |
| 20260505180042 | 79 | 252 | 5.2 | 11.3 | 0.00 | 0.00 | 0.00 | 42 | 1015.6 |
| 20260505174539 | 78 | 191 | 7.8 | 17.4 | 0.00 | 0.00 | 0.00 | 44 | 1015.6 |
| 20260505173037 | 79 | 146 | 7.8 | 10.4 | 0.00 | 0.00 | 0.00 | 44 | 1015.6 |
| 20260505171530 | 79 | 188 | 6.1 | 12.2 | 0.00 | 0.00 | 0.00 | 48 | 1015.7 |
| 20260505170023 | 78 | 184 | 3.5 | 8.7 | 0.00 | 0.00 | 0.00 | 44 | 1015.7 |
| 20260505164530 | 77 | 157 | 4.3 | 9.6 | 0.00 | 0.00 | 0.00 | 47 | 1015.8 |
| 20260505163013 | 77 | 175 | 6.1 | 10.4 | 0.00 | 0.00 | 0.00 | 54 | 1016.0 |
| 20260505161507 | 76 | 198 | 3.5 | 8.7 | 0.00 | 0.00 | 0.00 | 53 | 1016.2 |
| 20260505153106 | 75 | 274 | 2.6 | 7.0 | 0.00 | 0.00 | 0.00 | 55 | 1016.6 |
| 20260505151549 | 74 | 241 | 4.3 | 9.6 | 0.00 | 0.00 | 0.00 | 56 | 1016.7 |
| 20260505124503 | 56 | 186 | 2.6 | 5.2 | 0.00 | 0.00 | 0.00 | 1 | 1016.5 |
| 20260505123113 | 54 | 186 | 1.7 | 3.5 | 0.00 | 0.00 | 0.00 | 1 | 1016.5 |
| 20260505121554 | 52 | 186 | 0.0 | 0.0 | 0.00 | 0.00 | 0.00 | 1 | 1016.5 |
| 20260505120053 | 50 | 186 | 0.0 | 0.0 | 0.00 | 0.00 | 0.00 | 1 | 1016.1 |
| 20260505114553 | 49 | 186 | 0.0 | 0.0 | 0.00 | 0.00 | 0.00 | 1 | 1016.0 |
| 20260505113042 | 48 | 184 | 0.0 | 0.0 | 0.00 | 0.00 | 0.00 | 1 | 1016.0 |
| 20260505111536 | 0 | 184 | 0.0 | 0.0 | 0.00 | 0.00 | 0.00 | 1015.8 | |
| 20260505101520 | 0 | 184 | 0.0 | 0.0 | 0.00 | 0.00 | 0.00 | 1015.3 | |
| 20260505100015 | 0 | 184 | 0.0 | 0.0 | 0.00 | 0.00 | 0.00 | 1015.3 | |
| 20260505094509 | 0 | 184 | 0.0 | 0.0 | 0.00 | 0.00 | 0.00 | 1015.3 | |
| 20260505093006 | 0 | 184 | 0.0 | 0.0 | 0.00 | 0.00 | 0.00 | 1015.2 | |
| 20260505091502 | 0 | 184 | 0.0 | 0.0 | 0.00 | 0.00 | 0.00 | 1015.1 | |
| 20260505090109 | 0 | 184 | 0.0 | 0.0 | 0.00 | 0.00 | 0.00 | 1015.1 | |
| 20260505084553 | 0 | 184 | 0.0 | 0.0 | 0.00 | 0.00 | 0.00 | 1015.2 | |
| 20260505083052 | 0 | 184 | 0.0 | 0.0 | 0.00 | 0.00 | 0.00 | 1015.0 | |
| 20260505081548 | 0 | 184 | 0.0 | 0.0 | 0.00 | 0.00 | 0.00 | 1015.1 | |
| 20260505080050 | 0 | 184 | 0.0 | 0.0 | 0.00 | 0.00 | 0.00 | 1015.0 | |
| 20260505074535 | 0 | 184 | 0.0 | 1.7 | 0.00 | 0.00 | 0.00 | 1014.9 | |
| 20260505073044 | 0 | 184 | 0.9 | 2.6 | 0.00 | 0.00 | 0.00 | 1014.9 | |
| 20260505071526 | 0 | 184 | 1.7 | 3.5 | 0.00 | 0.00 | 0.00 | 1014.9 | |
| 20260505070023 | 0 | 184 | 2.6 | 5.2 | 0.00 | 0.00 | 0.00 | 1014.8 | |
| 20260505064517 | 0 | 184 | 1.7 | 4.3 | 0.00 | 0.00 | 0.00 | 1014.8 | |
| 20260505063101 | 0 | 184 | 2.6 | 5.2 | 0.00 | 0.00 | 0.00 | 1014.8 | |
| 20260505061600 | 0 | 184 | 2.6 | 5.2 | 0.00 | 0.00 | 0.00 | 1014.8 | |
| 20260505060049 | 0 | 184 | 1.7 | 5.2 | 0.00 | 0.00 | 0.00 | 1014.9 | |
| 20260505054545 | 0 | 184 | 0.9 | 4.3 | 0.00 | 0.00 | 0.00 | 1015.0 | |
| 20260505053040 | 0 | 184 | 1.7 | 5.2 | 0.00 | 0.00 | 0.00 | 1015.1 | |
| 20260505051537 | 0 | 184 | 1.7 | 5.2 | 0.00 | 0.00 | 0.00 | 1015.2 | |
| 20260505041536 | 0 | 188 | 2.6 | 6.1 | 0.00 | 0.00 | 0.00 | 1015.3 | |
| 20260505040014 | 0 | 192 | 2.6 | 7.0 | 0.00 | 0.00 | 0.00 | 1015.3 | |
| 20260505034513 | 0 | 201 | 0.0 | 0.0 | 0.00 | 0.00 | 0.00 | 1015.3 | |
| 20260505033013 | 0 | 202 | 0.0 | 0.0 | 0.00 | 0.00 | 0.00 | 1015.3 | |
| 20260505031513 | 0 | 202 | 0.0 | 0.0 | 0.00 | 0.00 | 0.00 | 1015.3 | |
| 20260505030012 | 0 | 202 | 0.0 | 0.0 | 0.00 | 0.00 | 0.00 | 1015.4 | |
| 20260505024510 | 0 | 202 | 0.0 | 0.0 | 0.00 | 0.00 | 0.00 | 1015.2 | |
| 20260505023010 | 0 | 202 | 0.0 | 0.0 | 0.00 | 0.00 | 0.00 | 1015.2 | |
| 20260505021510 | 0 | 203 | 0.0 | 0.0 | 0.00 | 0.00 | 0.00 | 1015.2 | |
| 20260505020014 | 0 | 202 | 0.0 | 0.0 | 0.00 | 0.00 | 0.00 | 1015.1 | |
| 20260505014508 | 0 | 203 | 0.0 | 0.0 | 0.00 | 0.00 | 0.00 | 1014.8 | |
| 20260505013008 | 0 | 203 | 0.0 | 0.0 | 0.00 | 0.00 | 0.00 | 1014.8 | |
| 20260505011510 | 0 | 203 | 0.0 | 0.0 | 0.00 | 0.00 | 0.00 | 1014.6 | |
| 20260505010007 | 0 | 203 | 0.0 | 0.0 | 0.00 | 0.00 | 0.00 | 1014.5 | |
| 20260505004506 | 0 | 203 | 0.0 | 0.9 | 0.00 | 0.00 | 0.00 | 1014.4 | |
| 20260505003005 | 0 | 202 | 0.9 | 3.5 | 0.00 | 0.00 | 0.00 | 1014.2 | |
| 20260505001506 | 0 | 202 | 0.9 | 4.3 | 0.00 | 0.00 | 0.00 | 1014.2 | |
| 20260505000004 | 0 | 204 | 0.0 | 0.0 | 0.00 | 0.00 | 0.00 | 1014.1 | |
| 20260504234504 | 0 | 204 | 0.0 | 0.0 | 0.00 | 0.00 | 0.00 | 1013.7 | |
| 20260504233004 | 0 | 204 | 0.0 | 1.7 | 0.00 | 0.00 | 0.00 | 1013.6 | |
| 20260504231502 | 0 | 198 | 0.9 | 2.6 | 0.00 | 0.00 | 0.00 | 1013.5 | |
| 20260504230006 | 0 | 198 | 0.9 | 3.5 | 0.00 | 0.00 | 0.00 | 1013.6 | |
| 20260504224502 | 0 | 198 | 3.5 | 7.0 | 0.00 | 0.00 | 0.00 | 1013.6 | |
| 20260504223001 | 0 | 207 | 1.7 | 7.8 | 0.00 | 0.00 | 0.00 | 1013.8 | |
| 20260504221501 | 0 | 180 | 2.6 | 6.1 | 0.00 | 0.00 | 0.00 | 1014.0 | |
| 20260504220001 | 0 | 175 | 5.2 | 8.7 | 0.00 | 0.00 | 0.00 | 1013.9 | |
| 20260504214602 | 0 | 208 | 2.6 | 8.7 | 0.00 | 0.00 | 0.00 | 1013.8 | |
| 20260504213130 | 0 | 194 | 2.6 | 7.8 | 0.00 | 0.00 | 0.00 | 1013.7 | |
| 20260504211556 | 0 | 170 | 3.5 | 7.8 | 0.00 | 0.00 | 0.00 | 1013.7 | |
| 20260504210050 | 0 | 167 | 4.3 | 7.8 | 0.00 | 0.00 | 0.00 | 1013.6 | |
| 20260504204547 | 81 | 175 | 4.3 | 7.0 | 0.00 | 0.00 | 0.00 | 29 | 1013.7 |
| 20260504203042 | 81 | 192 | 0.0 | 4.3 | 0.00 | 0.00 | 0.00 | 31 | 1013.9 |
| 20260504201536 | 80 | 188 | 0.0 | 7.0 | 0.00 | 0.00 | 0.00 | 31 | 1014.0 |
| 20260504200031 | 81 | 201 | 2.6 | 6.1 | 0.00 | 0.00 | 0.00 | 35 | 1014.1 |
| 20260504194526 | 80 | 186 | 0.0 | 0.0 | 0.00 | 0.00 | 0.00 | 31 | 1014.2 |
| 20260504193021 | 79 | 185 | 2.6 | 7.0 | 0.00 | 0.00 | 0.00 | 33 | 1014.5 |
| 20260504191519 | 79 | 189 | 0.0 | 3.5 | 0.00 | 0.00 | 0.00 | 33 | 1014.7 |
| 20260504190013 | 79 | 193 | 4.3 | 7.8 | 0.00 | 0.00 | 0.00 | 31 | 1015.1 |